Bekescsaba, Hungary

2:19 AM CEST on May 30, 2017 (GMT +0200)
Bekescsaba

Weather History for LHBC - March, 2014

Change the Weather History Date:

Sunday, March 9, 2014

  Actual Average (LRAR) Record (LRAR)
Temperature  
Mean Temperature 47 °F -  
Max Temperature 57 °F 48 °F 64 °F (2013)
Min Temperature 37 °F 30 °F 19 °F (2006)
Degree Days  
Heating Degree Days 18    
Moisture  
Dew Point 35 °F    
Average Humidity 59    
Maximum Humidity 87    
Minimum Humidity 32    
Precipitation  
Precipitation 0.00 in - - ()
Sea Level Pressure  
Sea Level Pressure 30.41 in    
Wind  
Wind Speed 13 mph ()    
Max Wind Speed 24 mph    
Max Gust Speed -    
Visibility 15.5 miles    
Events      
Averages and records for this station are not official NWS values.
T = Trace of Precipitation, MM = Missing Value Source: Averaged Metar Reports

Daily Weather History Graph

Daily Weather History Graph

Search for Another Location

Airport or City:

Trip Planner

Search our weather history database for the weather conditions in past years. The results will help you decide how hot, cold, wet, or windy it might be!

Date:

Astronomy

Mar. 09, 2014 Rise Set
Actual Time 6:00 AM CET 5:32 PM CET
Civil Twilight 5:30 AM CET 6:02 PM CET
Nautical Twilight 4:55 AM CET 6:37 PM CET
Astronomical Twilight 4:19 AM CET 7:13 PM CET
Moon 10:54 AM CET (3/9) 1:26 AM CET (3/9)
Length of Visible Light 12h 32m
Length of Day
11h 31m
First Quarter, 59% of the Moon is Illuminated
Mar 9
First Quarter
Mar 16
Full
Mar 24
Last Quarter
Mar 30
New
Apr 7
First Quarter

Hourly Weather History & Observations

Time (CET) Temp. Windchill Dew Point Humidity Pressure Visibility Wind Dir Wind Speed Gust Speed Precip Events Conditions
12:00 AM 39 °F - 35 °F 80% 30.43 in - NNE 8.9 mph - -  
1:00 AM 38 °F - 35 °F 84% 30.43 in - North 11.2 mph - -  
2:00 AM 38 °F - 35 °F 82% 30.43 in - North 8.9 mph - -  
3:00 AM 38 °F - 35 °F 84% 30.41 in - North 11.2 mph - -  
4:00 AM 38 °F - 35 °F 83% 30.41 in - NNE 15.7 mph - -  
4:45 AM 37.4 °F 28.9 °F 33.8 °F 87% 30.39 in - NNE 13.8 mph - N/A   Clear
5:00 AM 38 °F - 34 °F 81% 30.42 in 12 mi NNE 13.4 mph - -   Partly Cloudy
5:45 AM 37.4 °F 28.5 °F 33.8 °F 87% 30.42 in - NNE 15.0 mph - N/A   Clear
6:00 AM 37 °F - 33 °F 82% 30.43 in 19 mi NNE 13.4 mph - -   Partly Cloudy
6:45 AM 37.4 °F 29.8 °F 33.8 °F 87% 30.42 in - NNE 11.5 mph - N/A   Clear
7:00 AM 38 °F - 34 °F 80% 30.44 in 22 mi NNE 11.2 mph - -   Partly Cloudy
7:45 AM 41.0 °F 33.1 °F 35.6 °F 81% 30.45 in - NNE 15.0 mph - N/A   Clear
8:00 AM 42 °F - 36 °F 73% 30.45 in 31 mi NNE 13.4 mph - -   Partly Cloudy
9:00 AM 45 °F - 37 °F 66% 30.46 in - NNE 15.7 mph - -  
9:45 AM 48.2 °F - 37.4 °F 66% 30.45 in - NNE 15.0 mph - N/A   Clear
10:00 AM 49 °F - 38 °F 55% 30.45 in 31 mi NNE 15.7 mph - -   Partly Cloudy
11:00 AM 53 °F - 39 °F 47% 30.44 in - NNE 17.9 mph - -  
12:00 PM 55 °F - 37 °F 39% 30.43 in - NNE 20.1 mph - -  
12:45 PM 55.4 °F - 35.6 °F 47% 30.42 in - NE 16.1 mph - N/A   Clear
1:00 PM 56 °F - 36 °F 36% 30.41 in 37 mi NE 15.7 mph - -   Partly Cloudy
1:45 PM 57.2 °F - 35.6 °F 44% 30.39 in - NNE 19.6 mph - N/A   Clear
2:00 PM 57 °F - 36 °F 34% 30.39 in 37 mi NNE 20.1 mph - -   Partly Cloudy
2:45 PM 57.2 °F - 35.6 °F 44% 30.36 in - NE 24.2 mph - N/A   Clear
3:00 PM 58 °F - 36 °F 32% 30.37 in 37 mi NE 22.4 mph - -   Partly Cloudy
3:45 PM 57.2 °F - 35.6 °F 44% 30.36 in - NNE 21.9 mph - N/A   Clear
4:00 PM 57 °F - 36 °F 34% 30.36 in 40 mi NNE 20.1 mph - -   Partly Cloudy
5:00 PM 56 °F - 35 °F 33% 30.36 in - NE 20.1 mph - -  
6:00 PM 53 °F - 35 °F 37% 30.37 in - NE 20.1 mph - -  
6:45 PM 51.8 °F - 33.8 °F 50% 30.36 in - NE 16.1 mph - N/A   Clear
7:00 PM 51 °F - 35 °F 41% 30.38 in 34 mi NE 15.7 mph - -   Partly Cloudy
8:00 PM 49 °F - 34 °F 44% 30.39 in - NE 15.7 mph - -  
9:00 PM 47 °F - 32 °F 45% 30.39 in - NE 13.4 mph - -  
10:00 PM 46 °F - 32 °F 46% 30.40 in - NE 13.4 mph - -  
11:00 PM 44 °F - 31 °F 50% 30.40 in - NE 13.4 mph - -